| time (UTC) | temp F | wind direction | speed MPH | gust MPH | rain 1hr in | rain 24hr in | rain mn in | humidity % | barometer mb |
| 20260504024038 | 48 | 161 | 0.0 | 0.0 | 0.00 | 0.01 | 0.01 | 65 | 1003.1 |
| 20260504023534 | 49 | 160 | 0.0 | 0.0 | 0.00 | 0.01 | 0.01 | 63 | 1003.1 |
| 20260504023030 | 49 | 146 | 0.0 | 1.0 | 0.00 | 0.01 | 0.01 | 61 | 1002.7 |
| 20260504022526 | 50 | 155 | 0.0 | 1.0 | 0.00 | 0.01 | 0.01 | 58 | 1003.1 |
| 20260504022023 | 50 | 152 | 0.0 | 0.0 | 0.00 | 0.01 | 0.01 | 56 | 1002.4 |
| 20260504021520 | 51 | 148 | 0.0 | 1.0 | 0.00 | 0.01 | 0.01 | 54 | 1002.7 |
| 20260504021017 | 51 | 152 | 0.0 | 0.0 | 0.00 | 0.01 | 0.01 | 53 | 1003.1 |
| 20260504020514 | 52 | 151 | 1.0 | 1.0 | 0.00 | 0.01 | 0.01 | 52 | 1002.7 |
| 20260504020011 | 53 | 156 | 0.0 | 1.0 | 0.00 | 0.01 | 0.01 | 51 | 1002.7 |
| 20260504015507 | 53 | 161 | 0.0 | 0.0 | 0.00 | 0.01 | 0.01 | 52 | 1002.7 |
| 20260504015003 | 54 | 160 | 0.0 | 0.0 | 0.00 | 0.01 | 0.01 | 49 | 1002.7 |
| 20260504014459 | 55 | 144 | 1.0 | 1.0 | 0.00 | 0.01 | 0.01 | 48 | 1002.7 |
| 20260504013956 | 55 | 150 | 0.0 | 0.0 | 0.00 | 0.01 | 0.01 | 48 | 1002.7 |
| 20260504013455 | 55 | 177 | 0.0 | 0.0 | 0.00 | 0.01 | 0.01 | 48 | 1002.7 |
| 20260504012950 | 56 | 178 | 0.0 | 0.0 | 0.00 | 0.01 | 0.01 | 48 | 1003.1 |
| 20260504012449 | 58 | 168 | 0.0 | 0.0 | 0.00 | 0.01 | 0.01 | 43 | 1003.1 |
| 20260504011946 | 59 | 168 | 0.0 | 0.0 | 0.00 | 0.01 | 0.01 | 42 | 1003.1 |
| 20260504011442 | 59 | 168 | 0.0 | 0.0 | 0.00 | 0.01 | 0.01 | 42 | 1003.1 |
| 20260504010938 | 59 | 168 | 0.0 | 0.0 | 0.00 | 0.01 | 0.01 | 42 | 1003.1 |
| 20260504010434 | 60 | 170 | 0.0 | 0.0 | 0.00 | 0.01 | 0.01 | 42 | 1003.1 |
| 20260504005930 | 61 | 176 | 0.0 | 0.0 | 0.00 | 0.01 | 0.01 | 40 | 1002.7 |
| 20260504005427 | 61 | 181 | 0.0 | 1.0 | 0.00 | 0.01 | 0.01 | 39 | 1003.1 |
| 20260504004925 | 62 | 175 | 0.0 | 0.0 | 0.00 | 0.01 | 0.01 | 38 | 1003.1 |
| 20260504004422 | 63 | 173 | 0.0 | 0.0 | 0.00 | 0.01 | 0.01 | 36 | 1003.1 |
| 20260504003919 | 63 | 174 | 0.0 | 0.0 | 0.00 | 0.01 | 0.01 | 36 | 1003.1 |
| 20260504003415 | 63 | 168 | 0.0 | 0.0 | 0.00 | 0.01 | 0.01 | 36 | 1003.1 |
| 20260504002912 | 64 | 222 | 0.0 | 1.0 | 0.00 | 0.01 | 0.01 | 34 | 1003.1 |
| 20260504002409 | 64 | 175 | 1.0 | 1.0 | 0.00 | 0.01 | 0.01 | 34 | 1003.4 |
| 20260504001907 | 65 | 263 | 2.0 | 2.0 | 0.00 | 0.01 | 0.01 | 34 | 1003.1 |
| 20260504001404 | 65 | 178 | 1.0 | 1.0 | 0.00 | 0.01 | 0.01 | 33 | 1003.1 |
| 20260504000900 | 65 | 116 | 3.0 | 5.0 | 0.00 | 0.01 | 0.01 | 32 | 1003.1 |
| 20260504000358 | 66 | 294 | 2.0 | 3.0 | 0.00 | 0.01 | 0.01 | 34 | 1003.1 |
| 20260503235855 | 66 | 165 | 0.0 | 0.0 | 0.00 | 0.01 | 0.01 | 32 | 1003.1 |
| 20260503235353 | 66 | 48 | 1.0 | 3.0 | 0.00 | 0.01 | 0.01 | 31 | 1003.1 |
| 20260503234850 | 66 | 308 | 3.0 | 3.0 | 0.00 | 0.01 | 0.01 | 31 | 1003.1 |
| 20260503234348 | 67 | 194 | 1.0 | 2.0 | 0.00 | 0.01 | 0.01 | 31 | 1003.1 |
| 20260503233845 | 68 | 147 | 2.0 | 2.0 | 0.00 | 0.01 | 0.01 | 30 | 1003.1 |
| 20260503233341 | 68 | 245 | 3.0 | 3.0 | 0.00 | 0.01 | 0.01 | 31 | 1003.1 |
| 20260503232838 | 68 | 332 | 1.0 | 2.0 | 0.00 | 0.01 | 0.01 | 31 | 1003.1 |
| 20260503232335 | 68 | 236 | 3.0 | 3.0 | 0.00 | 0.01 | 0.01 | 30 | 1003.4 |
| 20260503231833 | 68 | 331 | 5.0 | 7.0 | 0.00 | 0.01 | 0.01 | 28 | 1003.1 |
| 20260503231330 | 68 | 200 | 0.0 | 1.0 | 0.00 | 0.01 | 0.01 | 31 | 1003.1 |
| 20260503230826 | 68 | 296 | 4.0 | 6.0 | 0.00 | 0.01 | 0.01 | 29 | 1002.7 |
| 20260503230323 | 69 | 270 | 2.0 | 2.0 | 0.00 | 0.01 | 0.01 | 29 | 1003.1 |
| 20260503225821 | 69 | 173 | 3.0 | 5.0 | 0.00 | 0.01 | 0.01 | 29 | 1003.1 |
| 20260503225316 | 69 | 213 | 3.0 | 3.0 | 0.00 | 0.01 | 0.01 | 28 | 1002.7 |
| 20260503224813 | 69 | 216 | 2.0 | 2.0 | 0.00 | 0.01 | 0.01 | 29 | 1003.1 |
| 20260503224310 | 69 | 216 | 3.0 | 5.0 | 0.00 | 0.01 | 0.01 | 29 | 1003.1 |
| 20260503223808 | 70 | 318 | 3.0 | 3.0 | 0.00 | 0.01 | 0.01 | 29 | 1003.1 |
| 20260503223305 | 69 | 91 | 3.0 | 3.0 | 0.00 | 0.01 | 0.01 | 30 | 1002.7 |
| 20260503222801 | 70 | 245 | 3.0 | 5.0 | 0.00 | 0.01 | 0.01 | 30 | 1002.7 |
| 20260503222259 | 70 | 185 | 1.0 | 1.0 | 0.00 | 0.01 | 0.01 | 30 | 1003.1 |
| 20260503221757 | 71 | 215 | 2.0 | 2.0 | 0.00 | 0.01 | 0.01 | 30 | 1003.1 |
| 20260503221255 | 71 | 295 | 4.0 | 6.0 | 0.00 | 0.01 | 0.01 | 32 | 1003.1 |
| 20260503220751 | 71 | 328 | 3.0 | 5.0 | 0.00 | 0.01 | 0.01 | 32 | 1003.1 |
| 20260503220248 | 71 | 177 | 1.0 | 1.0 | 0.00 | 0.01 | 0.01 | 34 | 1002.7 |
| 20260503215745 | 70 | 256 | 2.0 | 3.0 | 0.00 | 0.01 | 0.01 | 33 | 1003.1 |
| 20260503215242 | 70 | 312 | 3.0 | 6.0 | 0.00 | 0.01 | 0.01 | 34 | 1003.1 |
| 20260503214740 | 71 | 305 | 5.0 | 7.0 | 0.00 | 0.01 | 0.01 | 34 | 1003.1 |
| 20260503214236 | 71 | 315 | 1.0 | 2.0 | 0.00 | 0.01 | 0.01 | 35 | 1002.7 |
| 20260503213735 | 71 | 193 | 5.0 | 6.0 | 0.00 | 0.01 | 0.01 | 33 | 1003.1 |
| 20260503213232 | 71 | 97 | 4.0 | 6.0 | 0.00 | 0.01 | 0.01 | 35 | 1002.7 |
| 20260503212728 | 71 | 259 | 5.0 | 6.0 | 0.00 | 0.01 | 0.01 | 35 | 1002.7 |
| 20260503212226 | 71 | 104 | 3.0 | 5.0 | 0.00 | 0.01 | 0.01 | 35 | 1002.7 |
| 20260503211724 | 71 | 184 | 3.0 | 3.0 | 0.00 | 0.01 | 0.01 | 35 | 1002.7 |
| 20260503211219 | 72 | 219 | 2.0 | 3.0 | 0.00 | 0.01 | 0.01 | 35 | 1003.1 |
| 20260503210715 | 72 | 193 | 4.0 | 6.0 | 0.00 | 0.01 | 0.01 | 35 | 1003.1 |
| 20260503210213 | 72 | 238 | 3.0 | 3.0 | 0.00 | 0.01 | 0.01 | 35 | 1002.7 |
| 20260503205708 | 72 | 283 | 4.0 | 6.0 | 0.00 | 0.01 | 0.01 | 34 | 1002.7 |
| 20260503205204 | 71 | 2 | 2.0 | 2.0 | 0.00 | 0.01 | 0.01 | 37 | 1003.1 |
| 20260503204701 | 71 | 240 | 1.0 | 1.0 | 0.00 | 0.01 | 0.01 | 38 | 1003.1 |
| 20260503204159 | 71 | 312 | 1.0 | 2.0 | 0.00 | 0.01 | 0.01 | 38 | 1003.1 |
| 20260503203655 | 71 | 36 | 2.0 | 3.0 | 0.00 | 0.01 | 0.01 | 37 | 1003.1 |
| 20260503203153 | 71 | 161 | 3.0 | 5.0 | 0.00 | 0.01 | 0.01 | 37 | 1003.1 |
| 20260503202650 | 71 | 197 | 3.0 | 5.0 | 0.00 | 0.01 | 0.01 | 37 | 1003.4 |
| 20260503202148 | 72 | 247 | 3.0 | 3.0 | 0.00 | 0.01 | 0.01 | 38 | 1003.4 |
| 20260503201646 | 71 | 180 | 1.0 | 1.0 | 0.00 | 0.01 | 0.01 | 37 | 1003.4 |
| 20260503201143 | 71 | 302 | 2.0 | 3.0 | 0.00 | 0.01 | 0.01 | 34 | 1003.1 |
| 20260503200639 | 71 | 223 | 2.0 | 3.0 | 0.00 | 0.01 | 0.01 | 35 | 1003.4 |
| 20260503200135 | 71 | 164 | 1.0 | 2.0 | 0.00 | 0.01 | 0.01 | 36 | 1003.4 |
| 20260503195633 | 71 | 203 | 3.0 | 5.0 | 0.00 | 0.01 | 0.01 | 37 | 1003.1 |
| 20260503195130 | 71 | 204 | 3.0 | 3.0 | 0.00 | 0.01 | 0.01 | 38 | 1003.4 |
| 20260503194627 | 71 | 242 | 5.0 | 8.0 | 0.00 | 0.01 | 0.01 | 37 | 1003.7 |
| 20260503194122 | 71 | 126 | 2.0 | 3.0 | 0.00 | 0.01 | 0.01 | 38 | 1003.4 |
| 20260503193619 | 71 | 300 | 3.0 | 3.0 | 0.00 | 0.01 | 0.01 | 40 | 1003.4 |
| 20260503193114 | 71 | 198 | 3.0 | 5.0 | 0.00 | 0.01 | 0.01 | 41 | 1003.7 |
| 20260503192610 | 71 | 156 | 1.0 | 2.0 | 0.00 | 0.01 | 0.01 | 42 | 1003.7 |
| 20260503192106 | 71 | 31 | 3.0 | 3.0 | 0.00 | 0.01 | 0.01 | 43 | 1003.4 |
| 20260503191603 | 71 | 277 | 3.0 | 5.0 | 0.00 | 0.01 | 0.01 | 42 | 1003.7 |
| 20260503191100 | 70 | 195 | 2.0 | 2.0 | 0.00 | 0.01 | 0.01 | 44 | 1003.4 |
| 20260503190557 | 71 | 174 | 4.0 | 7.0 | 0.00 | 0.01 | 0.01 | 42 | 1003.7 |
| 20260503190054 | 71 | 139 | 2.0 | 3.0 | 0.00 | 0.01 | 0.01 | 43 | 1003.7 |
| 20260503185551 | 70 | 175 | 0.0 | 1.0 | 0.00 | 0.01 | 0.01 | 43 | 1003.7 |
| 20260503185050 | 69 | 202 | 2.0 | 2.0 | 0.00 | 0.01 | 0.01 | 42 | 1003.7 |
| 20260503184546 | 70 | 176 | 3.0 | 3.0 | 0.00 | 0.01 | 0.01 | 43 | 1003.7 |
| 20260503184043 | 70 | 181 | 1.0 | 1.0 | 0.00 | 0.01 | 0.01 | 45 | 1003.7 |
| 20260503183540 | 70 | 220 | 3.0 | 3.0 | 0.00 | 0.01 | 0.01 | 44 | 1003.4 |
| 20260503183037 | 70 | 262 | 3.0 | 3.0 | 0.00 | 0.01 | 0.01 | 43 | 1003.7 |
| 20260503182536 | 69 | 88 | 3.0 | 6.0 | 0.00 | 0.01 | 0.01 | 40 | 1003.7 |
| 20260503182033 | 69 | 107 | 3.0 | 5.0 | 0.00 | 0.01 | 0.01 | 42 | 1003.7 |
| 20260503181530 | 70 | 221 | 3.0 | 3.0 | 0.00 | 0.01 | 0.01 | 41 | 1003.7 |
| 20260503181026 | 69 | 204 | 2.0 | 2.0 | 0.00 | 0.01 | 0.01 | 44 | 1003.7 |
| 20260503180523 | 69 | 265 | 1.0 | 1.0 | 0.00 | 0.01 | 0.01 | 42 | 1003.7 |
| 20260503180021 | 70 | 131 | 2.0 | 2.0 | 0.00 | 0.01 | 0.01 | 44 | 1004.2 |
| 20260503175518 | 71 | 0 | 3.0 | 3.0 | 0.00 | 0.01 | 0.01 | 42 | 1004.2 |
| 20260503175015 | 69 | 237 | 2.0 | 2.0 | 0.00 | 0.01 | 0.01 | 44 | 1004.2 |
| 20260503174513 | 69 | 107 | 2.0 | 5.0 | 0.00 | 0.01 | 0.01 | 45 | 1004.2 |
| 20260503174008 | 69 | 192 | 2.0 | 3.0 | 0.00 | 0.01 | 0.01 | 45 | 1004.2 |
| 20260503173503 | 68 | 127 | 3.0 | 3.0 | 0.00 | 0.01 | 0.01 | 46 | 1004.2 |
| 20260503173000 | 68 | 134 | 1.0 | 2.0 | 0.00 | 0.01 | 0.01 | 48 | 1004.2 |
| 20260503172458 | 68 | 163 | 2.0 | 3.0 | 0.00 | 0.01 | 0.01 | 47 | 1004.2 |
| 20260503171954 | 68 | 53 | 4.0 | 5.0 | 0.00 | 0.01 | 0.01 | 47 | 1004.2 |
| 20260503171451 | 68 | 52 | 3.0 | 3.0 | 0.00 | 0.01 | 0.01 | 47 | 1004.5 |
| 20260503170948 | 68 | 325 | 4.0 | 5.0 | 0.00 | 0.01 | 0.01 | 47 | 1004.2 |
| 20260503170444 | 67 | 152 | 2.0 | 3.0 | 0.00 | 0.01 | 0.01 | 49 | 1004.2 |
| 20260503150837 | 63 | 257 | 4.0 | 6.0 | 0.00 | 0.01 | 0.01 | 51 | 1004.5 |
| 20260503150333 | 63 | 183 | 3.0 | 3.0 | 0.00 | 0.01 | 0.01 | 51 | 1004.5 |
| 20260503140257 | 59 | 218 | 4.0 | 5.0 | 0.00 | 0.01 | 0.01 | 60 | 1004.9 |
| 20260503131227 | 56 | 212 | 3.0 | 3.0 | 0.00 | 0.01 | 0.01 | 64 | 1004.9 |
| 20260503130724 | 56 | 199 | 2.0 | 2.0 | 0.00 | 0.01 | 0.01 | 63 | 1004.5 |
| 20260503130221 | 56 | 202 | 2.0 | 2.0 | 0.00 | 0.01 | 0.01 | 64 | 1004.9 |
| 20260503120147 | 43 | 153 | 0.0 | 0.0 | 0.00 | 0.01 | 0.01 | 99 | 1004.9 |
| 20260503110615 | 42 | 141 | 1.0 | 1.0 | 0.00 | 0.01 | 0.01 | 98 | 1004.9 |
| 20260503110112 | 43 | 166 | 0.0 | 0.0 | 0.00 | 0.01 | 0.01 | 98 | 1004.9 |
| 20260503090502 | 46 | 148 | 1.0 | 1.0 | 0.01 | 0.01 | 0.01 | 92 | 1005.9 |
| 20260503081428 | 52 | 171 | 1.0 | 1.0 | 0.00 | 0.00 | 0.00 | 68 | 1005.9 |
| 20260503080925 | 53 | 173 | 2.0 | 2.0 | 0.00 | 0.00 | 0.00 | 66 | 1006.2 |
| 20260503080422 | 53 | 165 | 1.0 | 1.0 | 0.00 | 0.00 | 0.00 | 66 | 1005.9 |
| 20260503072858 | 54 | 179 | 3.0 | 3.0 | 0.00 | 0.00 | 0.00 | 63 | 1006.2 |
| 20260503072355 | 54 | 165 | 3.0 | 3.0 | 0.00 | 0.00 | 0.00 | 64 | 1006.2 |
| 20260503071852 | 54 | 179 | 2.0 | 2.0 | 0.00 | 0.00 | 0.00 | 64 | 1006.6 |
| 20260503071349 | 54 | 177 | 2.0 | 2.0 | 0.00 | 0.00 | 0.00 | 65 | 1006.6 |
| 20260503070845 | 54 | 175 | 2.0 | 2.0 | 0.00 | 0.00 | 0.00 | 64 | 1006.6 |
| 20260503070343 | 54 | 173 | 1.0 | 2.0 | 0.00 | 0.00 | 0.00 | 64 | 1006.6 |
| 20260503060309 | 57 | 181 | 1.0 | 1.0 | 0.00 | 0.00 | 0.00 | 60 | 1007.2 |
| 20260503054755 | 57 | 176 | 2.0 | 2.0 | 0.00 | 0.00 | 0.00 | 58 | 1007.7 |
| 20260503054252 | 57 | 177 | 2.0 | 2.0 | 0.00 | 0.00 | 0.00 | 58 | 1007.7 |
| 20260503053750 | 58 | 179 | 2.0 | 2.0 | 0.00 | 0.00 | 0.00 | 57 | 1007.7 |
| 20260503053249 | 57 | 206 | 3.0 | 3.0 | 0.00 | 0.00 | 0.00 | 56 | 1008.0 |
| 20260503052744 | 58 | 169 | 1.0 | 2.0 | 0.00 | 0.00 | 0.00 | 59 | 1008.0 |
| 20260503052241 | 58 | 186 | 2.0 | 2.0 | 0.00 | 0.00 | 0.00 | 57 | 1008.0 |
| 20260503051736 | 58 | 192 | 2.0 | 2.0 | 0.00 | 0.00 | 0.00 | 58 | 1008.0 |
| 20260503051234 | 58 | 197 | 1.0 | 2.0 | 0.00 | 0.00 | 0.00 | 57 | 1008.0 |
| 20260503050730 | 58 | 195 | 1.0 | 2.0 | 0.00 | 0.00 | 0.00 | 58 | 1008.0 |
| 20260503050227 | 56 | 178 | 3.0 | 3.0 | 0.00 | 0.00 | 0.00 | 60 | 1008.4 |
| 20260503045725 | 56 | 165 | 1.0 | 2.0 | 0.00 | 0.00 | 0.00 | 61 | 1008.7 |
| 20260503045222 | 56 | 186 | 1.0 | 1.0 | 0.00 | 0.00 | 0.00 | 61 | 1008.7 |
| 20260503044718 | 57 | 190 | 1.0 | 1.0 | 0.00 | 0.00 | 0.00 | 59 | 1008.4 |
| 20260503044216 | 57 | 202 | 1.0 | 1.0 | 0.00 | 0.00 | 0.00 | 57 | 1008.4 |
| 20260503043712 | 58 | 206 | 2.0 | 2.0 | 0.00 | 0.00 | 0.00 | 56 | 1008.4 |
| 20260503043210 | 57 | 181 | 0.0 | 1.0 | 0.00 | 0.00 | 0.00 | 58 | 1008.7 |
| 20260503042706 | 57 | 199 | 2.0 | 2.0 | 0.00 | 0.00 | 0.00 | 57 | 1008.4 |
| 20260503042203 | 57 | 211 | 3.0 | 3.0 | 0.00 | 0.00 | 0.00 | 56 | 1008.4 |
| 20260503041658 | 58 | 213 | 3.0 | 3.0 | 0.00 | 0.00 | 0.00 | 56 | 1008.4 |
| 20260503041156 | 57 | 178 | 2.0 | 2.0 | 0.00 | 0.00 | 0.00 | 57 | 1008.7 |
| 20260503040654 | 57 | 184 | 2.0 | 2.0 | 0.00 | 0.00 | 0.00 | 58 | 1008.7 |
| 20260503040151 | 57 | 205 | 2.0 | 2.0 | 0.00 | 0.00 | 0.00 | 56 | 1008.4 |
| 20260503035647 | 57 | 184 | 1.0 | 1.0 | 0.00 | 0.00 | 0.00 | 56 | 1008.7 |
| 20260503035139 | 57 | 182 | 1.0 | 2.0 | 0.00 | 0.00 | 0.00 | 57 | 1008.7 |
| 20260503034637 | 57 | 184 | 1.0 | 1.0 | 0.00 | 0.00 | 0.00 | 56 | 1008.7 |
| 20260503034134 | 57 | 185 | 1.0 | 1.0 | 0.00 | 0.00 | 0.00 | 56 | 1009.0 |
| 20260503033630 | 57 | 185 | 2.0 | 2.0 | 0.00 | 0.00 | 0.00 | 56 | 1008.7 |
| 20260503033128 | 57 | 186 | 2.0 | 2.0 | 0.00 | 0.00 | 0.00 | 56 | 1009.0 |
| 20260503032627 | 57 | 181 | 2.0 | 2.0 | 0.00 | 0.00 | 0.00 | 55 | 1009.0 |
| 20260503032125 | 57 | 181 | 1.0 | 2.0 | 0.00 | 0.00 | 0.00 | 55 | 1009.0 |
| 20260503031622 | 57 | 184 | 1.0 | 1.0 | 0.00 | 0.00 | 0.00 | 54 | 1009.0 |
| 20260503031119 | 57 | 180 | 3.0 | 3.0 | 0.00 | 0.00 | 0.00 | 53 | 1009.0 |
| 20260503030615 | 57 | 179 | 2.0 | 2.0 | 0.00 | 0.00 | 0.00 | 54 | 1009.4 |
| 20260503030112 | 57 | 185 | 1.0 | 2.0 | 0.00 | 0.00 | 0.00 | 54 | 1009.4 |
| 20260503025608 | 57 | 175 | 1.0 | 1.0 | 0.00 | 0.00 | 0.00 | 53 | 1009.4 |
| 20260503025107 | 57 | 181 | 1.0 | 1.0 | 0.00 | 0.00 | 0.00 | 53 | 1009.4 |
| 20260503024602 | 58 | 183 | 3.0 | 3.0 | 0.00 | 0.00 | 0.00 | 52 | 1009.7 |